Location: Ladrillo (historical)
(32.8195°N, 117.2231°W)
Time: 19:37:56
(UTC+00:00)

NOAA 18 - Pass Details

Date: 28 April 2021
Orbit: 840 x 861 km, 99.0° (Epoch: 05 May)

Event Time Altitude Azimuth Distance (km) Brightness Sun altitude
Exits shadow 05:37:33 44° 297° (WNW) 1,147 6.1 -33.8°
Drops below altitude 10° 05:41:44 10° 335° (NNW) 2,460 8.4 -34.3°
Sets 05:44:10 0° 341° (NNW) 3,397 9.3 -34.6°
